EW9790 Weather Reports


Display with metric or nautical units.
time (UTC)temp
F
wind
direction
speed
MPH
gust
MPH
rain 1hr
in
rain 24hr
in
rain mn
in
humidity
%
barometer
mb
20260504130803 65 238 0.0 2.0 0.00 0.00 0.00 74 1011.8
20260504130535 64 236 0.0 2.0 0.00 0.00 0.00 74 1011.8
20260504130421 64 219 0.0 2.0 0.00 0.00 0.00 77 1011.7
20260504110300 51 266 0.0 0.0 0.00 0.00 0.00 88 1011.2
20260504100256 52 266 0.0 0.0 0.00 0.00 0.00 84 1011.1
20260504081749 51 294 0.0 1.0 0.00 0.00 0.00 81 1011.3
20260504081517 51 319 0.0 0.0 0.00 0.00 0.00 81 1011.2
20260504080746 51 319 0.0 0.0 0.00 0.00 0.00 81 1011.3
20260504080520 51 319 0.0 0.0 0.00 0.00 0.00 81 1011.4
20260504070245 52 319 0.0 0.0 0.00 0.00 0.00 76 1011.9
20260504050743 54 311 0.0 2.0 0.00 0.00 0.00 70 1012.9
20260504050243 54 311 0.0 2.0 0.00 0.00 0.00 69 1012.8
20260504045744 54 245 0.0 2.0 0.00 0.00 0.00 70 1012.8
20260504045243 54 212 0.0 1.0 0.00 0.00 0.00 70 1012.9
20260504044741 54 212 0.0 0.0 0.00 0.00 0.00 69 1013.0
20260504044241 54 263 0.0 1.0 0.00 0.00 0.00 69 1013.1
20260504043741 54 263 0.0 1.0 0.00 0.00 0.00 70 1013.0
20260504043239 54 101 0.0 1.0 0.00 0.00 0.00 70 1013.1
20260504042739 54 101 0.0 1.0 0.00 0.00 0.00 70 1013.1
20260504042239 54 101 0.0 1.0 0.00 0.00 0.00 71 1013.1
20260504041740 54 107 0.0 1.0 0.00 0.00 0.00 71 1013.1
20260504041240 54 107 0.0 1.0 0.00 0.00 0.00 71 1013.2
20260504041010 53 107 0.0 1.0 0.00 0.00 0.00 71 1013.1
20260504040239 53 15 0.0 1.0 0.00 0.00 0.00 72 1013.2
20260504035738 53 15 0.0 0.0 0.00 0.00 0.00 71 1013.3
20260504035237 53 15 0.0 1.0 0.00 0.00 0.00 71 1013.3
20260504034737 53 15 0.0 1.0 0.00 0.00 0.00 72 1013.3
20260504034508 53 15 0.0 3.0 0.00 0.00 0.00 72 1013.3
20260504033737 53 15 0.0 3.0 0.00 0.00 0.00 73 1013.3
20260504033238 52 243 0.0 3.0 0.00 0.00 0.00 75 1013.4
20260504032738 51 110 0.0 0.0 0.00 0.00 0.00 76 1013.4
20260504032237 51 110 0.0 0.0 0.00 0.00 0.00 77 1013.4
20260504031737 51 110 0.0 0.0 0.00 0.00 0.00 78 1013.5
20260504031238 51 110 0.0 0.0 0.00 0.00 0.00 78 1013.5
20260504030736 51 110 0.0 0.0 0.00 0.00 0.00 78 1013.6
20260504030236 51 110 0.0 0.0 0.00 0.00 0.00 79 1013.6
20260504025736 51 110 0.0 0.0 0.00 0.00 0.00 81 1013.6
20260504025235 51 110 0.0 0.0 0.00 0.00 0.00 81 1013.6
20260504025005 51 110 0.0 0.0 0.00 0.00 0.00 80 1013.6
20260504024235 51 110 0.0 0.0 0.00 0.00 0.00 79 1013.6
20260504023736 51 110 0.0 0.0 0.00 0.00 0.00 78 1013.5
20260504023505 51 110 0.0 0.0 0.00 0.00 0.00 78 1013.5
20260504023351 51 110 0.0 0.0 0.00 0.00 0.00 78 1013.5
20260504022234 52 110 0.0 0.0 0.00 0.00 0.00 77 1013.5
20260504021734 52 110 0.0 0.0 0.00 0.00 0.00 76 1013.5
20260504021234 52 110 0.0 0.0 0.00 0.00 0.00 76 1013.5
20260504020732 52 110 0.0 0.0 0.00 0.00 0.00 76 1013.4
20260504020233 53 110 0.0 0.0 0.00 0.00 0.00 74 1013.5
20260504015732 53 110 0.0 0.0 0.00 0.00 0.00 72 1013.4
20260504015504 54 110 0.0 0.0 0.00 0.00 0.00 71 1013.4
20260504015352 54 110 0.0 0.0 0.00 0.00 0.00 71 1013.4
20260504014233 55 110 0.0 0.0 0.00 0.00 0.00 69 1013.3
20260504013734 55 110 0.0 0.0 0.00 0.00 0.00 67 1013.3
20260504013233 56 110 0.0 0.0 0.00 0.00 0.00 66 1013.3
20260504012732 56 110 0.0 0.0 0.00 0.00 0.00 64 1013.2
20260504012231 57 110 0.0 0.0 0.00 0.00 0.00 64 1013.2
20260504011730 58 110 0.0 0.0 0.00 0.00 0.00 63 1013.2
20260504011232 58 110 0.0 0.0 0.00 0.00 0.00 59 1013.1
20260504010730 59 110 0.0 0.0 0.00 0.00 0.00 58 1013.1
20260504010230 59 110 0.0 0.0 0.00 0.00 0.00 58 1013.1
20260504005729 60 110 0.0 0.0 0.00 0.00 0.00 56 1013.0
20260504005230 60 110 0.0 0.0 0.00 0.00 0.00 55 1013.1
20260504004729 61 110 0.0 0.0 0.00 0.00 0.00 53 1013.1
20260504004228 62 110 0.0 1.0 0.00 0.00 0.00 52 1013.1
20260504003726 63 110 0.0 1.0 0.00 0.00 0.00 50 1013.1
20260504003225 64 110 0.0 1.0 0.00 0.00 0.00 49 1013.2
20260504002723 65 110 0.0 1.0 0.00 0.00 0.00 49 1013.2
20260504002224 65 110 0.0 1.0 0.00 0.00 0.00 48 1013.2
20260504001722 67 161 0.0 0.0 0.00 0.00 0.00 47 1013.3
20260504001222 68 161 0.0 1.0 0.00 0.00 0.00 44 1013.3
20260504000721 69 161 0.0 1.0 0.00 0.00 0.00 43 1013.3
20260504000221 70 155 0.0 1.0 0.00 0.00 0.00 42 1013.4
20260503235721 71 155 0.0 3.0 0.00 0.00 0.00 41 1013.4
20260503235221 71 167 1.0 7.0 0.00 0.00 0.00 40 1013.5
20260503234721 71 222 1.0 7.0 0.00 0.00 0.00 38 1013.7
20260503234222 72 231 0.0 3.0 0.00 0.00 0.00 39 1013.7
20260503233722 71 200 0.0 4.0 0.00 0.00 0.00 39 1013.7
20260503233222 71 201 0.0 4.0 0.00 0.00 0.00 39 1013.8
20260503232722 72 221 1.0 6.0 0.00 0.00 0.00 40 1013.9
20260503232221 71 197 1.0 6.0 0.00 0.00 0.00 39 1014.0
20260503231720 72 269 1.0 6.0 0.00 0.00 0.00 37 1014.0
20260503231220 72 19 1.0 6.0 0.00 0.00 0.00 39 1014.0
20260503230718 72 215 1.0 6.0 0.00 0.00 0.00 37 1014.0
20260503230450 73 14 1.0 4.0 0.00 0.00 0.00 39 1014.1
20260503225715 73 236 1.0 4.0 0.00 0.00 0.00 37 1014.2
20260503225215 73 207 0.0 7.0 0.00 0.00 0.00 37 1014.2
20260503224944 73 323 1.0 7.0 0.00 0.00 0.00 39 1014.2
20260503224212 73 262 1.0 3.0 0.00 0.00 0.00 40 1014.3
20260503223713 72 202 2.0 9.0 0.00 0.00 0.00 37 1014.3
20260503223213 73 242 2.0 9.0 0.00 0.00 0.00 37 1014.2
20260503222945 73 280 1.0 7.0 0.00 0.00 0.00 36 1014.3
20260503222212 73 212 1.0 3.0 0.00 0.00 0.00 38 1014.3
20260503221714 73 317 1.0 4.0 0.00 0.00 0.00 40 1014.4
20260503221213 73 252 2.0 5.0 0.00 0.00 0.00 37 1014.5
20260503220713 73 220 1.0 5.0 0.00 0.00 0.00 41 1014.5
20260503220213 73 135 1.0 5.0 0.00 0.00 0.00 37 1014.7
20260503215713 72 195 2.0 9.0 0.00 0.00 0.00 38 1014.8
20260503215213 72 211 2.0 9.0 0.00 0.00 0.00 37 1014.8
20260503214713 72 244 2.0 5.0 0.00 0.00 0.00 38 1014.9
20260503214443 72 158 2.0 5.0 0.00 0.00 0.00 40 1014.9
20260503213713 71 91 2.0 6.0 0.00 0.00 0.00 38 1015.1
20260503213213 71 270 2.0 6.0 0.00 0.00 0.00 37 1015.2
20260503212713 72 271 1.0 5.0 0.00 0.00 0.00 39 1015.3
20260503212214 72 222 2.0 6.0 0.00 0.00 0.00 37 1015.4
20260503211713 71 194 2.0 6.0 0.00 0.00 0.00 38 1015.4
20260503211446 72 258 1.0 4.0 0.00 0.00 0.00 40 1015.6
20260503210714 72 224 2.0 7.0 0.00 0.00 0.00 37 1015.7
20260503210212 71 239 2.0 8.0 0.00 0.00 0.00 41 1015.7
20260503205714 71 68 2.0 8.0 0.00 0.00 0.00 40 1015.8
20260503205213 71 225 2.0 12.0 0.00 0.00 0.00 40 1015.9
20260503204712 71 229 2.0 12.0 0.00 0.00 0.00 41 1015.9
20260503204445 71 210 2.0 8.0 0.00 0.00 0.00 43 1016.0
20260503203712 71 203 1.0 3.0 0.00 0.00 0.00 39 1016.3
20260503203441 71 202 1.0 8.0 0.00 0.00 0.00 41 1016.3
20260503202710 71 203 2.0 8.0 0.00 0.00 0.00 38 1016.4
20260503202211 70 139 2.0 5.0 0.00 0.00 0.00 40 1016.5
20260503201711 70 272 2.0 7.0 0.00 0.00 0.00 43 1016.6
20260503201209 70 143 2.0 7.0 0.00 0.00 0.00 38 1016.8
20260503200708 70 220 2.0 8.0 0.00 0.00 0.00 45 1016.9
20260503200209 70 85 2.0 8.0 0.00 0.00 0.00 44 1017.2
20260503195940 70 162 2.0 6.0 0.00 0.00 0.00 44 1017.3
20260503195209 70 259 2.0 5.0 0.00 0.00 0.00 41 1017.4
20260503194710 70 236 2.0 5.0 0.00 0.00 0.00 40 1017.5
20260503194207 70 248 2.0 4.0 0.00 0.00 0.00 42 1017.7
20260503193940 70 281 2.0 4.0 0.00 0.00 0.00 42 1017.7
20260503193439 70 219 2.0 5.0 0.00 0.00 0.00 40 1017.7
20260503192706 69 243 2.0 5.0 0.00 0.00 0.00 37 1017.8
20260503192205 69 3 2.0 5.0 0.00 0.00 0.00 44 1018.0
20260503191936 70 281 2.0 5.0 0.00 0.00 0.00 44 1018.0
20260503191204 69 271 2.0 5.0 0.00 0.00 0.00 41 1018.1
20260503190705 70 228 2.0 6.0 0.00 0.00 0.00 42 1018.1
20260503190205 69 226 2.0 6.0 0.00 0.00 0.00 43 1018.2
20260503185705 70 155 2.0 6.0 0.00 0.00 0.00 46 1018.3
20260503185204 70 223 2.0 6.0 0.00 0.00 0.00 45 1018.3
20260503184935 70 249 1.0 6.0 0.00 0.00 0.00 39 1018.4
20260503184204 69 166 1.0 4.0 0.00 0.00 0.00 44 1018.5
20260503183937 69 245 2.0 4.0 0.00 0.00 0.00 44 1018.5
20260503183435 69 219 2.0 5.0 0.00 0.00 0.00 45 1018.5
20260503182933 69 261 2.0 7.0 0.00 0.00 0.00 39 1018.6
20260503182202 69 194 2.0 7.0 0.00 0.00 0.00 46 1018.6
20260503181935 69 200 2.0 6.0 0.00 0.00 0.00 41 1018.7
20260503181203 68 143 2.0 6.0 0.00 0.00 0.00 41 1018.8
20260503180702 68 250 2.0 6.0 0.00 0.00 0.00 42 1018.9
20260503180203 68 129 2.0 9.0 0.00 0.00 0.00 41 1018.8
20260503175703 68 53 2.0 9.0 0.00 0.00 0.00 49 1019.0
20260503175204 68 288 2.0 6.0 0.00 0.00 0.00 46 1019.0
20260503174702 67 101 2.0 9.0 0.00 0.00 0.00 45 1019.1
20260503174204 67 223 2.0 9.0 0.00 0.00 0.00 44 1019.2
20260503173703 67 251 2.0 5.0 0.00 0.00 0.00 46 1019.3
20260503173431 67 331 2.0 5.0 0.00 0.00 0.00 41 1019.4
20260503172702 67 172 2.0 7.0 0.00 0.00 0.00 45 1019.5
20260503172200 67 274 2.0 7.0 0.00 0.00 0.00 41 1019.5
20260503171703 67 139 2.0 6.0 0.00 0.00 0.00 42 1019.6
20260503171200 66 202 2.0 5.0 0.00 0.00 0.00 44 1019.6
20260503170700 66 312 2.0 5.0 0.00 0.00 0.00 44 1019.7
20260503170200 67 298 2.0 5.0 0.00 0.00 0.00 44 1019.8
20260503160157 63 283 2.0 7.0 0.00 0.00 0.00 48 1020.6
20260503150657 60 143 2.0 6.0 0.00 0.00 0.00 55 1020.9
20260503150156 61 323 2.0 6.0 0.00 0.00 0.00 57 1020.8
20260503140148 56 208 1.0 4.0 0.00 0.00 0.00 71 1020.8